Regional Weather Roundup
Issued by NWS

Home | Current Version | Previous Version | Text Only | Print | Product List | Glossary On
Versions: 1 2 3 4 5 6 7 8 9 10 11 12 13 14 15 16 17 18 19 20 21 22 23 24 25 26 27 28 29 30 31 32 33 34 35 36 37 38 39 40 41 42 43 44 45 46 47 48 49 50
000
ASUS45 KSLC 242210
RWRUT

UTAH REGIONAL WEATHER ROUNDUP
NATIONAL WEATHER SERVICE SALT LAKE CITY UT
400 PM MDT SUN JUL 24 2016

UTZ001>011-023>025-242300-

NORTHERN UTAH

CITY           SKY/WX    TMP DP  RH WIND       PRES   REMARKS
BRIGHAM CITY     N/A     91  13   5 W5        30.08F
HILL AFB       SUNNY     89  29  11 NW9       30.12F
LOGAN          SUNNY     90  27  10 CALM      30.09F
OGDEN          SUNNY     91  30  11 VRB6      30.09F
PROVO AIRPORT  MOSUNNY   91  43  18 VRB6      30.07F
SALT LAKE CITY MOSUNNY   95  28   9 NW8       30.06F
VERNAL         SUNNY     97  26   8 W14G22    30.06F HX  91
WENDOVER       SUNNY     90  28  11 SE8       30.08F
HEBER CITY     SUNNY     95  23   7 SW9       30.13F

$$

UTZ012>022-026-027-242300-

SOUTHERN/CENTRAL UTAH

CITY           SKY/WX    TMP DP  RH WIND       PRES   REMARKS
BLANDING       MOSUNNY   96  35  11 N13G18    30.21S HX  91
BRYCE CANYON   LGT RAIN  75  33  21 NW25G51   30.34S SQUALL
CEDAR CITY     LGT RAIN  87  37  17 E15G21    30.13R
DELTA          SUNNY     95  27   8 SW6       30.07F
MILFORD        SUNNY     98  27   8 VRB5      30.05F HX  92
MOAB/CYNLANDS  SUNNY    102  23   6 SW9       29.99F HX  95
PRICE          SUNNY     92  29  10 SW6       30.13F
ST GEORGE      CLEAR    108  52  15 W17G23    29.89F HX 105

$$

REGIONAL REPORTS     COLORADO/ARIZONA

CITY           SKY/WX    TMP DP  RH WIND       PRES   REMARKS
CRAIG, CO      CLOUDY    90  27  10 W12       30.18S
GRAND JUNCTION MOSUNNY   98  31   9 W9        30.03F HX  92
RIFLE          CLOUDY    98  32  10 W12G23    30.08F HX  92
MONTROSE       CLOUDY    90  37  15 NW29G36   30.16R
CORTEZ         CLOUDY    96  36  12 W14G21    30.13F HX  91
PAGE, AZ       PTSUNNY   96  35  11 S18G29    30.00F HX  91
GRAND CANYON   PTSUNNY   90  44  20 SW9       30.23F THUNDER
KINGMAN        SUNNY     99  50  19 SW20G33   30.01F HX  96
FLAGSTAFF      PTSUNNY   79  38  22 NE12      30.30F

$$

REGIONAL REPORTS    NEVADA/IDAHO/WYOMING

CITY           SKY/WX    TMP DP  RH WIND       PRES   REMARKS
LAS VEGAS, NV  MOSUNNY  111  29   6 SW13G21   29.79F HX 103
ELY            SUNNY     91  21   8 S8G22     30.16F
ELKO           SUNNY     92  13   5 SW7       30.09F
POCATELLO, ID  SUNNY     87  31  13 NW10      30.13F
BURLEY         SUNNY     83  42  23 W5        30.08F
EVANSTON, WY   SUNNY     85  17   8 SW9G26    30.28S
ROCK SPRINGS   SUNNY     87  15   7 W23       30.24S
KEMMERER         N/A    N/A N/A N/A SW16G25   30.29F

$$



USA.gov is the U.S. government's official web portal to all federal, state and local government web resources and services.